Hourly Data Report for May 09, 2021

WIARTON A
ONTARIO
Current Station Operator: NAVCAN

44°44'39.000" N
81°06'31.000" W
221.90 m
6119499
71633
YVV

Download Data

Hourly Data (May 2021)
Hourly Data Report for May 9, 2021
TIME
LST
Temp Definition
°C
Dew Point Definition
°C
Rel Hum Definition
%
Precip. Amount Definition
mm

Wind Dir Definition
10's deg

Wind Spd Definition
km/h
Visibility Definition
km
Stn Press Definition
kPa
Hmdx Definition


Wind Chill Definition


Weather Definition


00:00 2.6 1.6 93   22 13 24.1 99.12     LegendNANA
01:00 1.6 1.0 96   20 10 24.1 99.12     Clear
02:00 1.8 1.0 95   21 3 24.1 99.08     LegendNANA
03:00 -0.5 -0.8 98   36 1 24.1 99.03   -1 LegendNANA
04:00 -0.1 -0.4 98   20 6 24.1 99.09   -2 Clear
05:00 -1.5 -1.8 98   14 7 24.1 99.05   -4 LegendNANA
06:00 0.4 0.3 99   17 7 24.1 99.03     LegendNANA
07:00 4.5 2.4 86   22 10 24.1 99.03     Mainly Clear
08:00 6.3 1.3 70   20 5 24.1 99.00     LegendNANA
09:00 8.2 0.0 56   25 3 24.1 98.95     LegendNANA
10:00 9.6 0.4 53   32 4 24.1 98.89     Cloudy
11:00 10.6 0.5 50   29 10 24.1 98.83     LegendNANA
12:00 10.3 0.6 51   33 5 24.1 98.74     LegendNANA
13:00 10.8 0.5 49   3 10 24.1 98.67     Cloudy
14:00 10.8 -0.3 46   1 12 24.1 98.63     LegendNANA
15:00 10.7 -0.2 47   1 10 24.1 98.65     LegendNANA
16:00 10.1 -0.1 49   5 17 24.1 98.63     Mostly Cloudy
17:00 9.9 -0.4 49   1 10 24.1 98.62     LegendNANA
18:00 8.9 0.7 56   36 6 24.1 98.61     LegendNANA
19:00 7.7 0.8 61   31 7 24.1 98.62     Mainly Clear
20:00 6.0 -3.2 52   29 9 24.1 98.68     LegendNANA
21:00 4.4 -1.8 64   36 1 24.1 98.76     LegendNANA
22:00 3.5 -0.6 75   21 10 24.1 98.79     Mainly Clear
23:00 2.8 -0.2 80   20 7 24.1 98.73     LegendNANA

Notes on Data Quality.

Legend

  • E = Estimated
  • M = Missing
  • NA = Not Available*
  • [empty] = Indicates an unobserved value
Date modified: